Regional Weather Roundup
Issued by NWS

Home | Current Version | Previous Version | Graphics & Text | Print | Product List | Glossary On
Versions: 1 2 3 4 5 6 7 8 9 10 11 12 13 14 15 16 17 18 19 20 21 22 23 24 25 26 27
000
ASUS45 KBOU 301007
RWRCO

WEATHER ROUNDUP FOR COLORADO
NATIONAL WEATHER SERVICE DENVER/BOULDER CO
400 AM MDT SAT APR 30 2016

NOTE: "FAIR" INDICATES FEW OR NO CLOUDS BELOW 12000 FEET WITH NO
SIGNIFICANT WEATHER AND/OR OBSTRUCTIONS TO VISIBILITY.

COZ001>005-013-030-031-301100-
...NORTHWEST COLORADO...

CITY           SKY/WX    TMP DP  RH WIND       PRES   REMARKS
CRAIG          LGT SNOW  34  31  88 SW10      29.86R FOG     WCI  26
HAYDEN         CLOUDY    32  28  86 W8        29.85S WCI  25
MEEKER         CLOUDY    34  32  92 SW3       29.88R
MOUNT WERNER   NOT AVBL
STEAMBOAT SPGS CLOUDY    31  30  97 SE5       29.86R VSB 1   WCI  26
WALDEN         CLOUDY    28  23  80 NW6       29.58F WCI  22
$$

COZ006>008-011-301100-
...WEST CENTRAL VALLEYS...

CITY           SKY/WX    TMP DP  RH WIND       PRES   REMARKS
GRAND JUNCTION CLOUDY    43  41  93 CALM      29.83S
MONTROSE       CLOUDY    41  35  79 SE6       29.85F
EAGLE          CLOUDY    37  37 100 CALM      29.85R
RIFLE          CLOUDY    42  32  67 NW13      29.84S
DELTA          NOT AVBL
NUCLA          NOT AVBL
$$

COZ017>023-064>068-301100-
...SOUTHWEST COLORADO...

CITY           SKY/WX    TMP DP  RH WIND       PRES   REMARKS
DURANGO        FAIR      26  24  92 CALM      29.84S
CORTEZ         FAIR      31  29  92 E7        29.85F WCI  24
PAGOSA SPRINGS CLOUDY    32  32 100 CALM      29.86F
TELLURIDE      LGT SNOW  30  30 100 CALM      29.89S
WOLF CREEK PAS FOG       19  19 100 SW10G18   29.91S VSB 1/4 WCI   8
$$

COZ009-010-012-014-032>034-037-058>063-301100-
...CENTRAL COLORADO...

CITY           SKY/WX    TMP DP  RH WIND       PRES   REMARKS
ASPEN          CLOUDY    33  31  92 N5        29.83R WCI  29
BUENA VISTA    MOCLDY    16  15  93 CALM      29.83R
COPPER MTN     NOT AVBL
BERTHOUD PASS  HVY SNOW  14   5  67 NW15      29.82S VSB 1/4 WCI  -1
COTTONWOOD PAS FLURRIES  28  25  86 CALM      29.82R
GUNNISON       CLOUDY    36  30  80 W5        29.84S
KREMMLING      CLOUDY    32  27  80 NW9       29.85R WCI  24
LEADVILLE      LGT SNOW  22  21  96 NE3       29.81R VSB 3/4
MONARCH PASS   CLOUDY    21  19  93 MISG      29.93F
SALIDA         CLOUDY    31  29  92 CALM      29.90S
SUNLIGHT       FOG      N/A N/A N/A W3        29.91R VSB 1/4
WILKERSON PASS CLOUDY   N/A N/A N/A W5        29.84S
$$

COZ069>075-301100-
...SAN LUIS VALLEY/SANGRE DE CRISTO MOUNTAINS...

CITY           SKY/WX    TMP DP  RH WIND       PRES   REMARKS
ALAMOSA        CLOUDY    33  30  88 CALM      29.82S
LA VETA PASS   SNOW      27  27 100 MISG      29.81S VSB 1/4
SAGUACHE       MIX PCPN  32  32 100 CALM      29.84S VSB 1
$$

COZ035-036-038>040-301100-
...NORTHERN COLORADO FRONT RANGE...

CITY           SKY/WX    TMP DP  RH WIND       PRES   REMARKS
DENVER INTL AP LGT SNOW  32  29  88 N12       29.87S VSB 1   WCI  23
DMNS CITY PARK   N/A     32  32  99 N5        29.89R WCI  28
AURORA         LGT SNOW  32  32 100 NW7       29.87S FOG     WCI  26
FRONT RANGE AP NOT AVBL
ERIE MUNI ARPT CLOUDY    33  33 100 CALM      29.88S FOG
BOULDER MUN AP MIX PCPN  34  34 100 N3        29.88R
CENTENNIAL     LGT SNOW  31  30  96 NW8       29.86S FOG     WCI  23
BROOMFIELD     MIX PCPN  32  32 100 N7        29.88R WCI  26
FORT COLLINS   MOCLDY    34  32  93 N13       29.89R WCI  25
LONGMONT       MOCLDY    35  34  93 CALM      29.90S
$$

COZ041-046-047-076>085-087-088-301100-
...PIKES PEAK/PALMER DIVIDE AND SOUTHERN FOOTHILLS...

CITY           SKY/WX    TMP DP  RH WIND       PRES   REMARKS
COLO. SPRINGS  CLOUDY    32  26  78 N14       29.83S WCI  22
A. F. ACADEMY  MOCLDY    30  28  93 N17       29.81F WCI  18
SCHRIEVER AFB  NOT AVBL
ELLICOTT       NOT AVBL
FALCON         CLOUDY    29  27  90 N14G22    29.82S WCI  19
FORT CARSON    NOT AVBL
LIMON          LGT SNOW  30  29  96 N17       29.82S FOG     WCI  18
MONUMENT HILL  LGT SNOW  27  27 100 N14       29.84S WCI  15
TRINIDAD       FAIR      25  23  92 W7        29.84R WCI  17
$$

COZ042>045-048>051-090-091-301100-
...NORTHEAST COLORADO...

CITY           SKY/WX    TMP DP  RH WIND       PRES   REMARKS
GREELEY ARPT   MOCLDY    34  32  93 N9        29.90R WCI  26
AKRON          SNOW      31  29  92 N15       29.83S VSB 1/2 WCI  20
BURLINGTON     CLOUDY    32  30  92 N16       29.80S WCI  21
WRAY           NOT AVBL
STERLING       CLOUDY    32  32 100 N7        29.85S WCI  26
HOLYOKE        NOT AVBL
FORT MORGAN    MOCLDY    32  31  97 N14       29.86F WCI  22
$$

COZ086-089-092>099-301100-
...SOUTHEAST COLORADO...

CITY           SKY/WX    TMP DP  RH WIND       PRES   REMARKS
PUEBLO         CLOUDY    36  33  89 W9        29.85S
LA JUNTA       CLOUDY    37  35  92 W8        29.84F
LAMAR          FAIR      33  32  96 W8        29.82S WCI  26
SPRINGFIELD      N/A     35  32  88 NW18      29.80R WCI  24
$$




USA.gov is the U.S. government's official web portal to all federal, state and local government web resources and services.